Year,Month,Day,Hour,Minute,Value (Times are PST for barometer in hPa)
2023,01,27,00,00,1022.93
2023,01,27,00,01,1022.89
2023,01,27,00,02,1022.86
2023,01,27,00,03,1022.76
2023,01,27,00,04,1022.69
2023,01,27,00,05,1022.69
2023,01,27,00,06,1022.62
2023,01,27,00,07,1022.62
2023,01,27,00,08,1022.55
2023,01,27,00,09,1022.62
2023,01,27,00,10,1022.59
2023,01,27,00,11,1022.62
2023,01,27,00,12,1022.62
2023,01,27,00,13,1022.59
2023,01,27,00,14,1022.62
2023,01,27,00,15,1022.60
2023,01,27,00,16,1022.72
2023,01,27,00,17,1022.69
2023,01,27,00,18,1022.66
2023,01,27,00,19,1022.66
2023,01,27,00,20,1022.66
2023,01,27,00,21,1022.66
2023,01,27,00,22,1022.59
2023,01,27,00,23,1022.55
2023,01,27,00,24,1022.55
2023,01,27,00,25,1022.49
2023,01,27,00,26,1022.45
2023,01,27,00,27,1022.42
2023,01,27,00,28,1022.45
2023,01,27,00,29,1022.49
2023,01,27,00,30,1022.45
2023,01,27,00,31,1022.39
2023,01,27,00,32,1022.32
2023,01,27,00,33,1022.28
2023,01,27,00,34,1022.25
2023,01,27,00,35,1022.25
2023,01,27,00,36,1022.18
2023,01,27,00,37,1022.22
2023,01,27,00,38,1022.22
2023,01,27,00,39,1022.18
2023,01,27,00,40,1022.15
2023,01,27,00,41,1022.18
2023,01,27,00,42,1022.22
2023,01,27,00,43,1022.18
2023,01,27,00,44,1022.18
2023,01,27,00,45,1022.11
2023,01,27,00,46,1022.15
2023,01,27,00,47,1022.11
2023,01,27,00,48,1022.08
2023,01,27,00,49,1022.11
2023,01,27,00,50,1022.11
2023,01,27,00,51,1022.18
2023,01,27,00,52,1022.22
2023,01,27,00,53,1022.15
2023,01,27,00,54,1022.08
2023,01,27,00,55,1022.15
2023,01,27,00,56,1022.15
2023,01,27,00,57,1022.05
2023,01,27,00,58,1022.05
2023,01,27,00,59,1022.08
2023,01,27,01,00,1022.01
2023,01,27,01,01,1022.05
2023,01,27,01,02,1022.05
2023,01,27,01,03,1022.01
2023,01,27,01,04,1022.01
2023,01,27,01,05,1022.05
2023,01,27,01,06,1022.05
2023,01,27,01,07,1022.05
2023,01,27,01,08,1021.98
2023,01,27,01,09,1021.98
2023,01,27,01,10,1021.94
2023,01,27,01,11,1021.94
2023,01,27,01,12,1021.94
2023,01,27,01,13,1021.98
2023,01,27,01,14,1022.01
2023,01,27,01,15,1021.91
2023,01,27,01,16,1021.91
2023,01,27,01,17,1021.93
2023,01,27,01,18,1021.84
2023,01,27,01,19,1021.88
2023,01,27,01,20,1021.84
2023,01,27,01,21,1021.81
2023,01,27,01,22,1021.84
2023,01,27,01,23,1021.81
2023,01,27,01,24,1021.78
2023,01,27,01,25,1021.78
2023,01,27,01,26,1021.78
2023,01,27,01,27,1021.74
2023,01,27,01,28,1021.74
2023,01,27,01,29,1021.67
2023,01,27,01,30,1021.64
2023,01,27,01,31,1021.64
2023,01,27,01,32,1021.61
2023,01,27,01,33,1021.57
2023,01,27,01,34,1021.57
2023,01,27,01,35,1021.54
2023,01,27,01,36,1021.54
2023,01,27,01,37,1021.54
2023,01,27,01,38,1021.57
2023,01,27,01,39,1021.57
2023,01,27,01,40,1021.61
2023,01,27,01,41,1021.64
2023,01,27,01,42,1021.71
2023,01,27,01,43,1021.71
2023,01,27,01,44,1021.67
2023,01,27,01,45,1021.71
2023,01,27,01,46,1021.67
2023,01,27,01,47,1021.74
2023,01,27,01,48,1021.71
2023,01,27,01,49,1021.71
2023,01,27,01,50,1021.67
2023,01,27,01,51,1021.64
2023,01,27,01,52,1021.67
2023,01,27,01,53,1021.67
2023,01,27,01,54,1021.67
2023,01,27,01,55,1021.71
2023,01,27,01,56,1021.71
2023,01,27,01,57,1021.71
2023,01,27,01,58,1021.78
2023,01,27,01,59,1021.78
2023,01,27,02,00,1021.78
2023,01,27,02,01,1021.74
2023,01,27,02,02,1021.78
2023,01,27,02,03,1021.78
2023,01,27,02,04,1021.78
2023,01,27,02,05,1021.78
2023,01,27,02,06,1021.74
2023,01,27,02,07,1021.74
2023,01,27,02,08,1021.74
2023,01,27,02,09,1021.74
2023,01,27,02,10,1021.84
2023,01,27,02,11,1021.81
2023,01,27,02,12,1021.88
2023,01,27,02,13,1021.91
2023,01,27,02,14,1021.91
2023,01,27,02,15,1021.88
2023,01,27,02,16,1021.88
2023,01,27,02,17,1021.84
2023,01,27,02,18,1021.81
2023,01,27,02,19,1021.88
2023,01,27,02,20,1021.91
2023,01,27,02,21,1021.94
2023,01,27,02,22,1021.98
2023,01,27,02,23,1022.01
2023,01,27,02,24,1022.08
2023,01,27,02,25,1022.05
2023,01,27,02,26,1022.05
2023,01,27,02,27,1022.11
2023,01,27,02,28,1022.11
2023,01,27,02,29,1022.11
2023,01,27,02,30,1022.08
2023,01,27,02,31,1022.11
2023,01,27,02,32,1022.05
2023,01,27,02,33,1022.08
2023,01,27,02,34,1022.11
2023,01,27,02,35,1022.05
2023,01,27,02,36,1022.08
2023,01,27,02,37,1022.08
2023,01,27,02,38,1022.10
2023,01,27,02,39,1022.01
2023,01,27,02,40,1022.05
2023,01,27,02,41,1022.01
2023,01,27,02,42,1022.05
2023,01,27,02,43,1022.01
2023,01,27,02,44,1022.05
2023,01,27,02,45,1022.05
2023,01,27,02,46,1022.08
2023,01,27,02,47,1022.01
2023,01,27,02,48,1021.98
2023,01,27,02,49,1022.05
2023,01,27,02,50,1022.01
2023,01,27,02,51,1021.98
2023,01,27,02,52,1021.98
2023,01,27,02,53,1022.05
2023,01,27,02,54,1022.05
2023,01,27,02,55,1022.08
2023,01,27,02,56,1022.08
2023,01,27,02,57,1022.08
2023,01,27,02,58,1022.05
2023,01,27,02,59,1022.05
2023,01,27,03,00,1022.01
2023,01,27,03,01,1021.98
2023,01,27,03,02,1022.05
2023,01,27,03,03,1022.08
2023,01,27,03,04,1022.05
2023,01,27,03,05,1022.01
2023,01,27,03,06,1022.08
2023,01,27,03,07,1022.11
2023,01,27,03,08,1022.11
2023,01,27,03,09,1022.15
2023,01,27,03,10,1022.18
2023,01,27,03,11,1022.22
2023,01,27,03,12,1022.22
2023,01,27,03,13,1022.28
2023,01,27,03,14,1022.25
2023,01,27,03,15,1022.32
2023,01,27,03,16,1022.32
2023,01,27,03,17,1022.28
2023,01,27,03,18,1022.32
2023,01,27,03,19,1022.28
2023,01,27,03,20,1022.28
2023,01,27,03,21,1022.28
2023,01,27,03,22,1022.32
2023,01,27,03,23,1022.25
2023,01,27,03,24,1022.28
2023,01,27,03,25,1022.28
2023,01,27,03,26,1022.25
2023,01,27,03,27,1022.25
2023,01,27,03,28,1022.18
2023,01,27,03,29,1022.22
2023,01,27,03,30,1022.18
2023,01,27,03,31,1022.25
2023,01,27,03,32,1022.22
2023,01,27,03,33,1022.25
2023,01,27,03,34,1022.25
2023,01,27,03,35,1022.28
2023,01,27,03,36,1022.25
2023,01,27,03,37,1022.25
2023,01,27,03,38,1022.25
2023,01,27,03,39,1022.22
2023,01,27,03,40,1022.18
2023,01,27,03,41,1022.15
2023,01,27,03,42,1022.18
2023,01,27,03,43,1022.18
2023,01,27,03,44,1022.25
2023,01,27,03,45,1022.28
2023,01,27,03,46,1022.28
2023,01,27,03,47,1022.25
2023,01,27,03,48,1022.22
2023,01,27,03,49,1022.25
2023,01,27,03,50,1022.28
2023,01,27,03,51,1022.28
2023,01,27,03,52,1022.25
2023,01,27,03,53,1022.25
2023,01,27,03,54,1022.22
2023,01,27,03,55,1022.22
2023,01,27,03,56,1022.25
2023,01,27,03,57,1022.22
2023,01,27,03,58,1022.25
2023,01,27,03,59,1022.22
2023,01,27,04,00,1022.15
2023,01,27,04,01,1022.11
2023,01,27,04,02,1022.05
2023,01,27,04,03,1021.98
2023,01,27,04,04,1022.01
2023,01,27,04,05,1022.01
2023,01,27,04,06,1021.98
2023,01,27,04,07,1021.94
2023,01,27,04,08,1021.98
2023,01,27,04,09,1021.98
2023,01,27,04,10,1021.98
2023,01,27,04,11,1022.02
2023,01,27,04,12,1022.11
2023,01,27,04,13,1022.25
2023,01,27,04,14,1022.28
2023,01,27,04,15,1022.22
2023,01,27,04,16,1022.15
2023,01,27,04,17,1022.11
2023,01,27,04,18,1022.15
2023,01,27,04,19,1022.18
2023,01,27,04,20,1022.18
2023,01,27,04,21,1022.18
2023,01,27,04,22,1022.25
2023,01,27,04,23,1022.28
2023,01,27,04,24,1022.32
2023,01,27,04,25,1022.32
2023,01,27,04,26,1022.32
2023,01,27,04,27,1022.28
2023,01,27,04,28,1022.18
2023,01,27,04,29,1022.32
2023,01,27,04,30,1022.35
2023,01,27,04,31,1022.35
2023,01,27,04,32,1022.35
2023,01,27,04,33,1022.35
2023,01,27,04,34,1022.42
2023,01,27,04,35,1022.39
2023,01,27,04,36,1022.42
2023,01,27,04,37,1022.35
2023,01,27,04,38,1022.42
2023,01,27,04,39,1022.45
2023,01,27,04,40,1022.45
2023,01,27,04,41,1022.45
2023,01,27,04,42,1022.49
2023,01,27,04,43,1022.45
2023,01,27,04,44,1022.42
2023,01,27,04,45,1022.45
2023,01,27,04,46,1022.49
2023,01,27,04,47,1022.49
2023,01,27,04,48,1022.52
2023,01,27,04,49,1022.49
2023,01,27,04,50,1022.49
2023,01,27,04,51,1022.45
2023,01,27,04,52,1022.52
2023,01,27,04,53,1022.55
2023,01,27,04,54,1022.55
2023,01,27,04,55,1022.59
2023,01,27,04,56,1022.55
2023,01,27,04,57,1022.66
2023,01,27,04,58,1022.59
2023,01,27,04,59,1022.55
2023,01,27,05,00,1022.55
2023,01,27,05,01,1022.49
2023,01,27,05,02,1022.49
2023,01,27,05,03,1022.49
2023,01,27,05,04,1022.45
2023,01,27,05,05,1022.49
2023,01,27,05,06,1022.49
2023,01,27,05,07,1022.49
2023,01,27,05,08,1022.55
2023,01,27,05,09,1022.49
2023,01,27,05,10,1022.52
2023,01,27,05,11,1022.55
2023,01,27,05,12,1022.59
2023,01,27,05,13,1022.59
2023,01,27,05,14,1022.59
2023,01,27,05,15,1022.62
2023,01,27,05,16,1022.66
2023,01,27,05,17,1022.59
2023,01,27,05,18,1022.62
2023,01,27,05,19,1022.59
2023,01,27,05,20,1022.62
2023,01,27,05,21,1022.62
2023,01,27,05,22,1022.62
2023,01,27,05,23,1022.55
2023,01,27,05,24,1022.59
2023,01,27,05,25,1022.55
2023,01,27,05,26,1022.52
2023,01,27,05,27,1022.49
2023,01,27,05,28,1022.45
2023,01,27,05,29,1022.45
2023,01,27,05,30,1022.39
2023,01,27,05,31,1022.39
2023,01,27,05,32,1022.35
2023,01,27,05,33,1022.32
2023,01,27,05,34,1022.39
2023,01,27,05,35,1022.35
2023,01,27,05,36,1022.35
2023,01,27,05,37,1022.39
2023,01,27,05,38,1022.35
2023,01,27,05,39,1022.35
2023,01,27,05,40,1022.35
2023,01,27,05,41,1022.39
2023,01,27,05,42,1022.35
2023,01,27,05,43,1022.32
2023,01,27,05,44,1022.28
2023,01,27,05,45,1022.28
2023,01,27,05,46,1022.25
2023,01,27,05,47,1022.25
2023,01,27,05,48,1022.25
2023,01,27,05,49,1022.28
2023,01,27,05,50,1022.25
2023,01,27,05,51,1022.32
2023,01,27,05,52,1022.35
2023,01,27,05,53,1022.35
2023,01,27,05,54,1022.35
2023,01,27,05,55,1022.35
2023,01,27,05,56,1022.35
2023,01,27,05,57,1022.35
2023,01,27,05,58,1022.39
2023,01,27,05,59,1022.35
2023,01,27,06,00,1022.39
2023,01,27,06,01,1022.35
2023,01,27,06,02,1022.35
2023,01,27,06,03,1022.39
2023,01,27,06,04,1022.35
2023,01,27,06,05,1022.35
2023,01,27,06,06,1022.32
2023,01,27,06,07,1022.35
2023,01,27,06,08,1022.35
2023,01,27,06,09,1022.39
2023,01,27,06,10,1022.42
2023,01,27,06,11,1022.45
2023,01,27,06,12,1022.45
2023,01,27,06,13,1022.45
2023,01,27,06,14,1022.39
2023,01,27,06,15,1022.42
2023,01,27,06,16,1022.35
2023,01,27,06,17,1022.39
2023,01,27,06,18,1022.35
2023,01,27,06,19,1022.32
2023,01,27,06,20,1022.28
2023,01,27,06,21,1022.28
2023,01,27,06,22,1022.18
2023,01,27,06,23,1022.18
2023,01,27,06,24,1022.18
2023,01,27,06,25,1022.15
2023,01,27,06,26,1022.11
2023,01,27,06,27,1022.05
2023,01,27,06,28,1022.08
2023,01,27,06,29,1022.08
2023,01,27,06,30,1022.05
2023,01,27,06,31,1022.08
2023,01,27,06,32,1022.08
2023,01,27,06,33,1022.01
2023,01,27,06,34,1021.98
2023,01,27,06,35,1021.94
2023,01,27,06,36,1022.08
2023,01,27,06,37,1022.08
2023,01,27,06,38,1022.11
2023,01,27,06,39,1022.15
2023,01,27,06,40,1022.22
2023,01,27,06,41,1022.28
2023,01,27,06,42,1022.32
2023,01,27,06,43,1022.42
2023,01,27,06,44,1022.45
2023,01,27,06,45,1022.42
2023,01,27,06,46,1022.42
2023,01,27,06,47,1022.42
2023,01,27,06,48,1022.45
2023,01,27,06,49,1022.42
2023,01,27,06,50,1022.39
2023,01,27,06,51,1022.39
2023,01,27,06,52,1022.39
2023,01,27,06,53,1022.39
2023,01,27,06,54,1022.42
2023,01,27,06,55,1022.42
2023,01,27,06,56,1022.45
2023,01,27,06,57,1022.42
2023,01,27,06,58,1022.42
2023,01,27,06,59,1022.42
2023,01,27,07,00,1022.45
2023,01,27,07,01,1022.45
2023,01,27,07,02,1022.49
2023,01,27,07,03,1022.49
2023,01,27,07,04,1022.55
2023,01,27,07,05,1022.59
2023,01,27,07,06,1022.59
2023,01,27,07,07,1022.55
2023,01,27,07,08,1022.55
2023,01,27,07,09,1022.56
2023,01,27,07,10,1022.66
2023,01,27,07,11,1022.62
2023,01,27,07,12,1022.59
2023,01,27,07,13,1022.62
2023,01,27,07,14,1022.66
2023,01,27,07,15,1022.69
2023,01,27,07,16,1022.72
2023,01,27,07,17,1022.69
2023,01,27,07,18,1022.69
2023,01,27,07,19,1022.76
2023,01,27,07,20,1022.76
2023,01,27,07,21,1022.76
2023,01,27,07,22,1022.79
2023,01,27,07,23,1022.76
2023,01,27,07,24,1022.83
2023,01,27,07,25,1022.79
2023,01,27,07,26,1022.83
2023,01,27,07,27,1022.83
2023,01,27,07,28,1022.86
2023,01,27,07,29,1022.83
2023,01,27,07,30,1022.86
2023,01,27,07,31,1022.86
2023,01,27,07,32,1022.86
2023,01,27,07,33,1022.86
2023,01,27,07,34,1022.89
2023,01,27,07,35,1022.89
2023,01,27,07,36,1022.93
2023,01,27,07,37,1022.96
2023,01,27,07,38,1022.99
2023,01,27,07,39,1022.93
2023,01,27,07,40,1023.03
2023,01,27,07,41,1022.99
2023,01,27,07,42,1022.99
2023,01,27,07,43,1022.96
2023,01,27,07,44,1022.99
2023,01,27,07,45,1023.03
2023,01,27,07,46,1023.06
2023,01,27,07,47,1023.03
2023,01,27,07,48,1023.10
2023,01,27,07,49,1023.10
2023,01,27,07,50,1023.06
2023,01,27,07,51,1023.03
2023,01,27,07,52,1023.06
2023,01,27,07,53,1023.13
2023,01,27,07,54,1023.16
2023,01,27,07,55,1023.13
2023,01,27,07,56,1023.16
2023,01,27,07,57,1023.10
2023,01,27,07,58,1023.10
2023,01,27,07,59,1023.10
2023,01,27,08,00,1023.10
2023,01,27,08,01,1023.10
2023,01,27,08,02,1023.06
2023,01,27,08,03,1023.10
2023,01,27,08,04,1023.06
2023,01,27,08,05,1023.03
2023,01,27,08,06,1022.99
2023,01,27,08,07,1022.99
2023,01,27,08,08,1023.03
2023,01,27,08,09,1023.06
2023,01,27,08,10,1023.03
2023,01,27,08,11,1023.13
2023,01,27,08,12,1023.10
2023,01,27,08,13,1023.10
2023,01,27,08,14,1023.13
2023,01,27,08,15,1023.10
2023,01,27,08,16,1023.10
2023,01,27,08,17,1023.10
2023,01,27,08,18,1023.10
2023,01,27,08,19,1023.20
2023,01,27,08,20,1023.16
2023,01,27,08,21,1023.13
2023,01,27,08,22,1023.20
2023,01,27,08,23,1023.20
2023,01,27,08,24,1023.23
2023,01,27,08,25,1023.23
2023,01,27,08,26,1023.23
2023,01,27,08,27,1023.20
2023,01,27,08,28,1023.27
2023,01,27,08,29,1023.20
2023,01,27,08,30,1023.30
2023,01,27,08,31,1023.33
2023,01,27,08,32,1023.37
2023,01,27,08,33,1023.40
2023,01,27,08,34,1023.40
2023,01,27,08,35,1023.43
2023,01,27,08,36,1023.43
2023,01,27,08,37,1023.47
2023,01,27,08,38,1023.47
2023,01,27,08,39,1023.54
2023,01,27,08,40,1023.57
2023,01,27,08,41,1023.57
2023,01,27,08,42,1023.60
2023,01,27,08,43,1023.64
2023,01,27,08,44,1023.64
2023,01,27,08,45,1023.67
2023,01,27,08,46,1023.71
2023,01,27,08,47,1023.71
2023,01,27,08,48,1023.71
2023,01,27,08,49,1023.71
2023,01,27,08,50,1023.67
2023,01,27,08,51,1023.64
2023,01,27,08,52,1023.67
2023,01,27,08,53,1023.64
2023,01,27,08,54,1023.57
2023,01,27,08,55,1023.57
2023,01,27,08,56,1023.57
2023,01,27,08,57,1023.57
2023,01,27,08,58,1023.57
2023,01,27,08,59,1023.57
2023,01,27,09,00,1023.50
2023,01,27,09,01,1023.54
2023,01,27,09,02,1023.57
2023,01,27,09,03,1023.57
2023,01,27,09,04,1023.60
2023,01,27,09,05,1023.54
2023,01,27,09,06,1023.60
2023,01,27,09,07,1023.60
2023,01,27,09,08,1023.64
2023,01,27,09,09,1023.64
2023,01,27,09,10,1023.74
2023,01,27,09,11,1023.67
2023,01,27,09,12,1023.71
2023,01,27,09,13,1023.71
2023,01,27,09,14,1023.64
2023,01,27,09,15,1023.57
2023,01,27,09,16,1023.57
2023,01,27,09,17,1023.60
2023,01,27,09,18,1023.64
2023,01,27,09,19,1023.60
2023,01,27,09,20,1023.60
2023,01,27,09,21,1023.57
2023,01,27,09,22,1023.54
2023,01,27,09,23,1023.64
2023,01,27,09,24,1023.60
2023,01,27,09,25,1023.57
2023,01,27,09,26,1023.54
2023,01,27,09,27,1023.57
2023,01,27,09,28,1023.50
2023,01,27,09,29,1023.57
2023,01,27,09,30,1023.54
2023,01,27,09,31,1023.60
2023,01,27,09,32,1023.64
2023,01,27,09,33,1023.60
2023,01,27,09,34,1023.64
2023,01,27,09,35,1023.64
2023,01,27,09,36,1023.67
2023,01,27,09,37,1023.67
2023,01,27,09,38,1023.64
2023,01,27,09,39,1023.71
2023,01,27,09,40,1023.67
2023,01,27,09,41,1023.60
2023,01,27,09,42,1023.64
2023,01,27,09,43,1023.64
2023,01,27,09,44,1023.64
2023,01,27,09,45,1023.57
2023,01,27,09,46,1023.54
2023,01,27,09,47,1023.54
2023,01,27,09,48,1023.54
2023,01,27,09,49,1023.50
2023,01,27,09,50,1023.57
2023,01,27,09,51,1023.54
2023,01,27,09,52,1023.50
2023,01,27,09,53,1023.54
2023,01,27,09,54,1023.47
2023,01,27,09,55,1023.54
2023,01,27,09,56,1023.50
2023,01,27,09,57,1023.50
2023,01,27,09,58,1023.54
2023,01,27,09,59,1023.54
2023,01,27,10,00,1023.50
2023,01,27,10,01,1023.54
2023,01,27,10,02,1023.50
2023,01,27,10,03,1023.54
2023,01,27,10,04,1023.50
2023,01,27,10,05,1023.50
2023,01,27,10,06,1023.54
2023,01,27,10,07,1023.43
2023,01,27,10,08,1023.47
2023,01,27,10,09,1023.47
2023,01,27,10,10,1023.43
2023,01,27,10,11,1023.40
2023,01,27,10,12,1023.37
2023,01,27,10,13,1023.47
2023,01,27,10,14,1023.50
2023,01,27,10,15,1023.47
2023,01,27,10,16,1023.54
2023,01,27,10,17,1023.60
2023,01,27,10,18,1023.57
2023,01,27,10,19,1023.60
2023,01,27,10,20,1023.57
2023,01,27,10,21,1023.64
2023,01,27,10,22,1023.57
2023,01,27,10,23,1023.57
2023,01,27,10,24,1023.60
2023,01,27,10,25,1023.57
2023,01,27,10,26,1023.57
2023,01,27,10,27,1023.57
2023,01,27,10,28,1023.57
2023,01,27,10,29,1023.57
2023,01,27,10,30,1023.57
2023,01,27,10,31,1023.59
2023,01,27,10,32,1023.50
2023,01,27,10,33,1023.54
2023,01,27,10,34,1023.54
2023,01,27,10,35,1023.57
2023,01,27,10,36,1023.57
2023,01,27,10,37,1023.60
2023,01,27,10,38,1023.60
2023,01,27,10,39,1023.64
2023,01,27,10,40,1023.64
2023,01,27,10,41,1023.60
2023,01,27,10,42,1023.64
2023,01,27,10,43,1023.60
2023,01,27,10,44,1023.57
2023,01,27,10,45,1023.57
2023,01,27,10,46,1023.54
2023,01,27,10,47,1023.57
2023,01,27,10,48,1023.54
2023,01,27,10,49,1023.54
2023,01,27,10,50,1023.60
2023,01,27,10,51,1023.54
2023,01,27,10,52,1023.57
2023,01,27,10,53,1023.57
2023,01,27,10,54,1023.57
2023,01,27,10,55,1023.54
2023,01,27,10,56,1023.50
2023,01,27,10,57,1023.50
2023,01,27,10,58,1023.54
2023,01,27,10,59,1023.54
2023,01,27,11,00,1023.57
2023,01,27,11,01,1023.54
2023,01,27,11,02,1023.50
2023,01,27,11,03,1023.54
2023,01,27,11,04,1023.50
2023,01,27,11,05,1023.43
2023,01,27,11,06,1023.37
2023,01,27,11,07,1023.37
2023,01,27,11,08,1023.33
2023,01,27,11,09,1023.37
2023,01,27,11,10,1023.40
2023,01,27,11,11,1023.43
2023,01,27,11,12,1023.43
2023,01,27,11,13,1023.43
2023,01,27,11,14,1023.47
2023,01,27,11,15,1023.47
2023,01,27,11,16,1023.43
2023,01,27,11,17,1023.47
2023,01,27,11,18,1023.40
2023,01,27,11,19,1023.37
2023,01,27,11,20,1023.37
2023,01,27,11,21,1023.33
2023,01,27,11,22,1023.30
2023,01,27,11,23,1023.27
2023,01,27,11,24,1023.23
2023,01,27,11,25,1023.23
2023,01,27,11,26,1023.23
2023,01,27,11,27,1023.23
2023,01,27,11,28,1023.20
2023,01,27,11,29,1023.23
2023,01,27,11,30,1023.20
2023,01,27,11,31,1023.20
2023,01,27,11,32,1023.20
2023,01,27,11,33,1023.16
2023,01,27,11,34,1023.16
2023,01,27,11,35,1023.16
2023,01,27,11,36,1023.16
2023,01,27,11,37,1023.13
2023,01,27,11,38,1023.13
2023,01,27,11,39,1023.13
2023,01,27,11,40,1023.13
2023,01,27,11,41,1023.13
2023,01,27,11,42,1023.16
2023,01,27,11,43,1023.16
2023,01,27,11,44,1023.20
2023,01,27,11,45,1023.13
2023,01,27,11,46,1023.13
2023,01,27,11,47,1023.13
2023,01,27,11,48,1023.06
2023,01,27,11,49,1023.10
2023,01,27,11,50,1023.10
2023,01,27,11,51,1023.13
2023,01,27,11,52,1023.16
2023,01,27,11,53,1023.13
2023,01,27,11,54,1023.16
2023,01,27,11,55,1023.13
2023,01,27,11,56,1023.10
2023,01,27,11,57,1023.06
2023,01,27,11,58,1023.10
2023,01,27,11,59,1023.10
2023,01,27,12,00,1023.06
2023,01,27,12,01,1023.10
2023,01,27,12,02,1023.06
2023,01,27,12,03,1023.06
2023,01,27,12,04,1023.06
2023,01,27,12,05,1023.06
2023,01,27,12,06,1023.03
2023,01,27,12,07,1022.96
2023,01,27,12,08,1022.99
2023,01,27,12,09,1023.03
2023,01,27,12,10,1022.99
2023,01,27,12,11,1022.96
2023,01,27,12,12,1022.93
2023,01,27,12,13,1022.89
2023,01,27,12,14,1022.96
2023,01,27,12,15,1022.89
2023,01,27,12,16,1022.93
2023,01,27,12,17,1022.89
2023,01,27,12,18,1022.89
2023,01,27,12,19,1022.93
2023,01,27,12,20,1022.86
2023,01,27,12,21,1022.86
2023,01,27,12,22,1022.86
2023,01,27,12,23,1022.86
2023,01,27,12,24,1022.89
2023,01,27,12,25,1022.96
2023,01,27,12,26,1022.96
2023,01,27,12,27,1022.99
2023,01,27,12,28,1022.96
2023,01,27,12,29,1022.96
2023,01,27,12,30,1022.99
2023,01,27,12,31,1022.99
2023,01,27,12,32,1022.99
2023,01,27,12,33,1022.96
2023,01,27,12,34,1022.96
2023,01,27,12,35,1022.96
2023,01,27,12,36,1022.99
2023,01,27,12,37,1022.99
2023,01,27,12,38,1022.99
2023,01,27,12,39,1022.93
2023,01,27,12,40,1022.96
2023,01,27,12,41,1022.96
2023,01,27,12,42,1022.93
2023,01,27,12,43,1022.89
2023,01,27,12,44,1022.89
2023,01,27,12,45,1022.89
2023,01,27,12,46,1022.86
2023,01,27,12,47,1022.83
2023,01,27,12,48,1022.86
2023,01,27,12,49,1022.86
2023,01,27,12,50,1022.86
2023,01,27,12,51,1022.86
2023,01,27,12,52,1022.83
2023,01,27,12,53,1022.86
2023,01,27,12,54,1022.83
2023,01,27,12,55,1022.83
2023,01,27,12,56,1022.83
2023,01,27,12,57,1022.79
2023,01,27,12,58,1022.83
2023,01,27,12,59,1022.79
2023,01,27,13,00,1022.76
2023,01,27,13,01,1022.76
2023,01,27,13,02,1022.76
2023,01,27,13,03,1022.79
2023,01,27,13,04,1022.72
2023,01,27,13,05,1022.66
2023,01,27,13,06,1022.66
2023,01,27,13,07,1022.62
2023,01,27,13,08,1022.62
2023,01,27,13,09,1022.59
2023,01,27,13,10,1022.55
2023,01,27,13,11,1022.52
2023,01,27,13,12,1022.52
2023,01,27,13,13,1022.49
2023,01,27,13,14,1022.45
2023,01,27,13,15,1022.45
2023,01,27,13,16,1022.39
2023,01,27,13,17,1022.39
2023,01,27,13,18,1022.39
2023,01,27,13,19,1022.35
2023,01,27,13,20,1022.35
2023,01,27,13,21,1022.32
2023,01,27,13,22,1022.35
2023,01,27,13,23,1022.32
2023,01,27,13,24,1022.26
2023,01,27,13,25,1022.35
2023,01,27,13,26,1022.28
2023,01,27,13,27,1022.32
2023,01,27,13,28,1022.28
2023,01,27,13,29,1022.25
2023,01,27,13,30,1022.28
2023,01,27,13,31,1022.22
2023,01,27,13,32,1022.18
2023,01,27,13,33,1022.15
2023,01,27,13,34,1022.15
2023,01,27,13,35,1022.11
2023,01,27,13,36,1022.11
2023,01,27,13,37,1022.11
2023,01,27,13,38,1022.08
2023,01,27,13,39,1022.08
2023,01,27,13,40,1022.08
2023,01,27,13,41,1022.08
2023,01,27,13,42,1022.05
2023,01,27,13,43,1022.08
2023,01,27,13,44,1022.01
2023,01,27,13,45,1022.01
2023,01,27,13,46,1021.98
2023,01,27,13,47,1021.94
2023,01,27,13,48,1021.94
2023,01,27,13,49,1021.91
2023,01,27,13,50,1021.94
2023,01,27,13,51,1021.91
2023,01,27,13,52,1021.84
2023,01,27,13,53,1021.88
2023,01,27,13,54,1021.88
2023,01,27,13,55,1021.88
2023,01,27,13,56,1021.84
2023,01,27,13,57,1021.81
2023,01,27,13,58,1021.88
2023,01,27,13,59,1021.91
2023,01,27,14,00,1021.88
2023,01,27,14,01,1021.94
2023,01,27,14,02,1021.94
2023,01,27,14,03,1021.94
2023,01,27,14,04,1021.94
2023,01,27,14,05,1021.94
2023,01,27,14,06,1021.98
2023,01,27,14,07,1021.94
2023,01,27,14,08,1021.98
2023,01,27,14,09,1021.98
2023,01,27,14,10,1022.01
2023,01,27,14,11,1021.98
2023,01,27,14,12,1022.01
2023,01,27,14,13,1021.98
2023,01,27,14,14,1021.98
2023,01,27,14,15,1021.98
2023,01,27,14,16,1021.98
2023,01,27,14,17,1021.98
2023,01,27,14,18,1021.94
2023,01,27,14,19,1021.98
2023,01,27,14,20,1021.94
2023,01,27,14,21,1021.94
2023,01,27,14,22,1021.94
2023,01,27,14,23,1021.98
2023,01,27,14,24,1021.94
2023,01,27,14,25,1021.94
2023,01,27,14,26,1021.98
2023,01,27,14,27,1021.98
2023,01,27,14,28,1021.98
2023,01,27,14,29,1021.98
2023,01,27,14,30,1022.01
2023,01,27,14,31,1021.98
2023,01,27,14,32,1021.94
2023,01,27,14,33,1021.98
2023,01,27,14,34,1021.98
2023,01,27,14,35,1021.98
2023,01,27,14,36,1021.94
2023,01,27,14,37,1021.94
2023,01,27,14,38,1021.91
2023,01,27,14,39,1021.91
2023,01,27,14,40,1021.84
2023,01,27,14,41,1021.81
2023,01,27,14,42,1021.84
2023,01,27,14,43,1021.81
2023,01,27,14,44,1021.81
2023,01,27,14,45,1021.81
2023,01,27,14,46,1021.74
2023,01,27,14,47,1021.81
2023,01,27,14,48,1021.81
2023,01,27,14,49,1021.84
2023,01,27,14,50,1021.84
2023,01,27,14,51,1021.81
2023,01,27,14,52,1021.88
2023,01,27,14,53,1021.88
2023,01,27,14,54,1021.91
2023,01,27,14,55,1021.91
2023,01,27,14,56,1021.91
2023,01,27,14,57,1021.88
2023,01,27,14,58,1021.84
2023,01,27,14,59,1021.91
2023,01,27,15,00,1021.88
2023,01,27,15,01,1021.88
2023,01,27,15,02,1021.94
2023,01,27,15,03,1021.88
2023,01,27,15,04,1021.84
2023,01,27,15,05,1021.91
2023,01,27,15,06,1021.88
2023,01,27,15,07,1021.94
2023,01,27,15,08,1021.94
2023,01,27,15,09,1021.91
2023,01,27,15,10,1021.91
2023,01,27,15,11,1021.88
2023,01,27,15,12,1021.94
2023,01,27,15,13,1021.94
2023,01,27,15,14,1021.98
2023,01,27,15,15,1021.98
2023,01,27,15,16,1022.05
2023,01,27,15,17,1022.01
2023,01,27,15,18,1021.98
2023,01,27,15,19,1021.98
2023,01,27,15,20,1021.94
2023,01,27,15,21,1021.98
2023,01,27,15,22,1021.98
2023,01,27,15,23,1021.98
2023,01,27,15,24,1022.05
2023,01,27,15,25,1022.15
2023,01,27,15,26,1022.11
2023,01,27,15,27,1022.15
2023,01,27,15,28,1022.01
2023,01,27,15,29,1022.05
2023,01,27,15,30,1022.05
2023,01,27,15,31,1022.05
2023,01,27,15,32,1022.08
2023,01,27,15,33,1022.01
2023,01,27,15,34,1022.05
2023,01,27,15,35,1022.08
2023,01,27,15,36,1022.08
2023,01,27,15,37,1022.11
2023,01,27,15,38,1022.08
2023,01,27,15,39,1022.22
2023,01,27,15,40,1022.18
2023,01,27,15,41,1022.18
2023,01,27,15,42,1022.25
2023,01,27,15,43,1022.25
2023,01,27,15,44,1022.25
2023,01,27,15,45,1022.25
2023,01,27,15,46,1022.25
2023,01,27,15,47,1022.25
2023,01,27,15,48,1022.25
2023,01,27,15,49,1022.25
2023,01,27,15,50,1022.28
2023,01,27,15,51,1022.25
2023,01,27,15,52,1022.22
2023,01,27,15,53,1022.28
2023,01,27,15,54,1022.22
2023,01,27,15,55,1022.25
2023,01,27,15,56,1022.25